• In Germany
  • List of Countries
  • For 7 days
  • Water Temperature
  • Satellite Maps
  • Weather Map
  • Weather Widgets
  • user-avatar
    Login

    Hourly Weather Korfu

    Today, 22 February, Thursday

    Time Temperature Precipitation Wind Pressure Humidity
    00:00 +9°C° 0.9 mm 7 mps 749 mmHg 91%
    01:00 +9°C° 0 mm 7 mps 750 mmHg 90%
    02:00 +9°C° 0.3 mm 6 mps 750 mmHg 90%
    03:00 +8°C° 0.3 mm 5 mps 750 mmHg 91%
    04:00 +8°C° 0.3 mm 5 mps 750 mmHg 91%
    05:00 +8°C° 0.2 mm 5 mps 750 mmHg 90%
    06:00 +8°C° 0.2 mm 4 mps 750 mmHg 89%
    07:00 +8°C° 0 mm 5 mps 750 mmHg 88%
    08:00 +10°C° 0.1 mm 5 mps 751 mmHg 82%
    09:00 +12°C° 0.1 mm 5 mps 751 mmHg 77%
    10:00 +14°C° 0.1 mm 6 mps 751 mmHg 71%
    11:00 +14°C° 0.1 mm 6 mps 751 mmHg 68%
    12:00 +15°C° 0.1 mm 6 mps 751 mmHg 66%
    13:00 +15°C° 0 mm 6 mps 751 mmHg 65%
    14:00 +15°C° 0.1 mm 6 mps 751 mmHg 67%
    15:00 +15°C° 0.1 mm 5 mps 751 mmHg 70%
    16:00 +14°C° 0.1 mm 5 mps 751 mmHg 72%
    17:00 +13°C° 0 mm 5 mps 752 mmHg 77%
    18:00 +12°C° 0 mm 5 mps 752 mmHg 82%
    19:00 +10°C° 0 mm 5 mps 752 mmHg 87%
    20:00 +10°C° 0 mm 5 mps 752 mmHg 87%
    21:00 +9°C° 0 mm 5 mps 752 mmHg 87%
    22:00 +9°C° 0 mm 5 mps 753 mmHg 87%
    23:00 +9°C° 0 mm 6 mps 753 mmHg 86%

    Tomorrow, 23 February, Friday

    Time Temperature Precipitation Wind Pressure Humidity
    00:00 +9°C° 0 mm 6 mps 752 mmHg 85%
    01:00 +9°C° 0 mm 6 mps 752 mmHg 85%
    02:00 +8°C° 0 mm 6 mps 752 mmHg 84%
    03:00 +8°C° 0 mm 6 mps 752 mmHg 83%
    04:00 +8°C° 0 mm 6 mps 752 mmHg 83%
    05:00 +8°C° 0 mm 6 mps 752 mmHg 82%
    06:00 +8°C° 0 mm 6 mps 752 mmHg 82%
    07:00 +8°C° 0 mm 6 mps 752 mmHg 82%
    08:00 +10°C° 0 mm 6 mps 752 mmHg 75%
    09:00 +13°C° 0 mm 6 mps 752 mmHg 68%
    10:00 +15°C° 0 mm 6 mps 752 mmHg 61%
    11:00 +16°C° 0 mm 6 mps 752 mmHg 57%
    12:00 +17°C° 0 mm 6 mps 752 mmHg 53%
    13:00 +19°C° 0 mm 6 mps 752 mmHg 48%
    14:00 +17°C° 0 mm 6 mps 751 mmHg 51%
    15:00 +17°C° 0 mm 6 mps 751 mmHg 54%
    16:00 +17°C° 0 mm 6 mps 751 mmHg 57%
    17:00 +15°C° 0 mm 6 mps 751 mmHg 62%
    18:00 +14°C° 0 mm 6 mps 750 mmHg 67%
    19:00 +11°C° 0 mm 6 mps 750 mmHg 72%
    20:00 +10°C° 0 mm 7 mps 750 mmHg 74%
    21:00 +10°C° 0 mm 7 mps 750 mmHg 76%
    22:00 +10°C° 0 mm 7 mps 750 mmHg 77%
    23:00 +10°C° 0 mm 7 mps 750 mmHg 77%

    Day after tomorrow, 24 February, Saturday

    Time Temperature Precipitation Wind Pressure Humidity
    00:00 +10°C° 0 mm 7 mps 750 mmHg 77%
    01:00 +10°C° 0 mm 8 mps 749 mmHg 76%
    02:00 +10°C° 0.5 mm 7 mps 749 mmHg 77%
    03:00 +10°C° 0.5 mm 7 mps 749 mmHg 77%
    04:00 +10°C° 0.5 mm 6 mps 749 mmHg 77%
    05:00 +9°C° 1.2 mm 6 mps 749 mmHg 82%
    06:00 +9°C° 1.2 mm 6 mps 749 mmHg 86%
    07:00 +9°C° 1.2 mm 5 mps 749 mmHg 91%
    08:00 +9°C° 0.8 mm 5 mps 750 mmHg 90%
    09:00 +9°C° 0.8 mm 5 mps 750 mmHg 89%
    10:00 +11°C° 0.8 mm 4 mps 751 mmHg 88%
    11:00 +11°C° 0.6 mm 4 mps 751 mmHg 86%
    12:00 +11°C° 0.6 mm 4 mps 751 mmHg 84%
    13:00 +12°C° 0.6 mm 4 mps 751 mmHg 82%
    14:00 +12°C° 0.3 mm 3 mps 751 mmHg 81%
    15:00 +13°C° 0.3 mm 2 mps 751 mmHg 80%
    16:00 +13°C° 0.3 mm 2 mps 751 mmHg 79%
    17:00 +13°C° 0.1 mm 2 mps 751 mmHg 82%
    18:00 +12°C° 0.1 mm 2 mps 751 mmHg 85%
    19:00 +10°C° 0.1 mm 2 mps 752 mmHg 88%
    20:00 +10°C° 0.3 mm 2 mps 752 mmHg 89%
    21:00 +10°C° 0.3 mm 3 mps 752 mmHg 90%
    22:00 +10°C° 0.3 mm 3 mps 753 mmHg 91%
    23:00 +9°C° 0.3 mm 3 mps 753 mmHg 92%

    25 February, Sunday

    Time Temperature Precipitation Wind Pressure Humidity
    00:00 +9°C° 0.3 mm 3 mps 753 mmHg 93%
    01:00 +9°C° 0.3 mm 3 mps 753 mmHg 94%
    02:00 +9°C° 0.1 mm 2 mps 752 mmHg 94%
    03:00 +9°C° 0.1 mm 2 mps 752 mmHg 95%
    04:00 +9°C° 0.1 mm 2 mps 752 mmHg 95%
    05:00 +9°C° 0 mm 2 mps 752 mmHg 95%
    06:00 +9°C° 0 mm 2 mps 752 mmHg 94%
    07:00 +9°C° 0 mm 3 mps 753 mmHg 94%
    08:00 +10°C° 0.1 mm 3 mps 753 mmHg 87%
    09:00 +11°C° 0.1 mm 4 mps 753 mmHg 79%
    10:00 +12°C° 0.1 mm 4 mps 753 mmHg 72%
    11:00 +13°C° 0.1 mm 4 mps 752 mmHg 71%
    12:00 +13°C° 0.1 mm 4 mps 752 mmHg 70%
    13:00 +13°C° 0.1 mm 5 mps 752 mmHg 69%
    14:00 +12°C° 0.6 mm 5 mps 752 mmHg 73%
    15:00 +12°C° 0.6 mm 5 mps 751 mmHg 77%
    16:00 +10°C° 0.6 mm 5 mps 751 mmHg 82%
    17:00 +10°C° 0.8 mm 5 mps 751 mmHg 84%
    18:00 +9°C° 0.8 mm 6 mps 751 mmHg 86%
    19:00 +9°C° 0.8 mm 6 mps 751 mmHg 88%
    20:00 +9°C° 0.9 mm 7 mps 751 mmHg 87%
    21:00 +9°C° 0.9 mm 7 mps 750 mmHg 86%
    22:00 +9°C° 0.9 mm 8 mps 750 mmHg 85%
    23:00 +8°C° 1.7 mm 9 mps 749 mmHg 85%

    26 February, Monday

    Time Temperature Precipitation Wind Pressure Humidity
    00:00 +7°C° 1.7 mm 10 mps 748 mmHg 85%
    01:00 +7°C° 1.7 mm 10 mps 747 mmHg 85%
    02:00 +7°C° 1.3 mm 11 mps 746 mmHg 84%
    03:00 +7°C° 1.3 mm 12 mps 745 mmHg 84%
    04:00 +7°C° 1.3 mm 12 mps 744 mmHg 83%
    05:00 +7°C° 4.2 mm 11 mps 743 mmHg 85%
    06:00 +6°C° 4.2 mm 10 mps 743 mmHg 87%
    07:00 +6°C° 4.2 mm 9 mps 743 mmHg 89%
    08:00 +6°C° 1.3 mm 8 mps 743 mmHg 87%
    09:00 +7°C° 1.3 mm 8 mps 744 mmHg 85%
    10:00 +8°C° 1.3 mm 7 mps 744 mmHg 83%
    11:00 +9°C° 0.5 mm 7 mps 744 mmHg 81%
    12:00 +9°C° 0.5 mm 7 mps 745 mmHg 79%
    13:00 +10°C° 0.5 mm 7 mps 745 mmHg 77%
    14:00 +9°C° 1 mm 8 mps 745 mmHg 80%
    15:00 +8°C° 1 mm 9 mps 746 mmHg 83%
    16:00 +7°C° 1 mm 9 mps 746 mmHg 87%
    17:00 +7°C° 0.6 mm 9 mps 747 mmHg 87%
    18:00 +6°C° 0.6 mm 8 mps 747 mmHg 88%
    19:00 +6°C° 0.6 mm 7 mps 748 mmHg 89%
    20:00 +7°C° 0.1 mm 6 mps 748 mmHg 89%
    21:00 +6°C° 0.1 mm 5 mps 749 mmHg 89%
    22:00 +6°C° 0.1 mm 4 mps 749 mmHg 89%
    23:00 +6°C° 0.2 mm 4 mps 749 mmHg 89%

    27 February, Tuesday

    Time Temperature Precipitation Wind Pressure Humidity
    00:00 +6°C° 0.2 mm 4 mps 749 mmHg 89%
    01:00 +7°C° 0.2 mm 3 mps 749 mmHg 89%
    02:00 +7°C° 0.3 mm 3 mps 749 mmHg 89%
    03:00 +5°C° 0.3 mm 4 mps 749 mmHg 89%
    04:00 +5°C° 0.3 mm 4 mps 749 mmHg 90%
    05:00 +5°C° 0.1 mm 4 mps 749 mmHg 89%
    06:00 +5°C° 0.1 mm 4 mps 750 mmHg 88%
    07:00 +5°C° 0.1 mm 4 mps 750 mmHg 87%
    08:00 +6°C° 0 mm 4 mps 750 mmHg 83%
    09:00 +8°C° 0 mm 3 mps 751 mmHg 79%
    10:00 +8°C° 0 mm 3 mps 751 mmHg 75%
    11:00 +9°C° 0 mm 3 mps 751 mmHg 72%
    12:00 +9°C° 0 mm 3 mps 752 mmHg 69%
    13:00 +9°C° 0 mm 2 mps 752 mmHg 66%
    14:00 +9°C° 0 mm 2 mps 752 mmHg 67%
    15:00 +9°C° 0 mm 2 mps 752 mmHg 68%
    16:00 +9°C° 0 mm 2 mps 752 mmHg 69%
    17:00 +8°C° 0 mm 3 mps 752 mmHg 73%
    18:00 +8°C° 0 mm 3 mps 753 mmHg 77%
    19:00 +7°C° 0 mm 3 mps 753 mmHg 81%
    20:00 +7°C° 0.1 mm 3 mps 753 mmHg 83%
    21:00 +5°C° 0.1 mm 3 mps 753 mmHg 84%
    22:00 +5°C° 0.1 mm 3 mps 754 mmHg 85%
    23:00 +5°C° 0.1 mm 3 mps 754 mmHg 85%
    Show more